Location: Dallas
(32.7833°N, 96.8000°W)
Time: 22:00:29
(UTC-06:00)

Envisat - Pass Details

Date: 15 December 2021
Orbit: 764 x 766 km, 98.2° (Epoch: 23 January)

Event Time Altitude Azimuth Distance (km) Brightness Sun altitude
Rises 06:06:05 0° 359° (N) 3,235 6.1 -15.6°
Reaches altitude 10° 06:08:37 10° 350° (N) 2,305 5.2 -15.1°
Maximum altitude 06:13:01 31° 289° (WNW) 1,321 3.7 -14.2°
Drops below altitude 10° 06:17:25 10° 229° (SW) 2,292 5.2 -13.4°
Sets 06:19:56 0° 219° (SW) 3,214 6.0 -12.9°
